Time,TemperatureF,DewpointF,PressureIn,WindDirection,WindDirectionDegrees,WindSpeedMPH,WindSpeedGustMPH,Humidity,HourlyPrecipIn,Conditions,Clouds,dailyrainin,SoftwareType,DateUTC
2013-05-20 00:04:00,58.1,52.6,26.85,North,0,3.5,3.5,82,0.00,RA,,0.00,WeatherDisplay:10.37,2013-05-20 05:04:00,
2013-05-20 00:09:00,58.1,52.6,26.85,North,0,3.5,3.5,82,0.00,RA,,0.00,WeatherDisplay:10.37,2013-05-20 05:09:00,
2013-05-20 00:15:00,58.1,52.6,26.85,North,0,3.5,3.5,82,0.00,CLR,,0.00,WeatherDisplay:10.37,2013-05-20 05:15:00,
2013-05-20 00:20:00,58.1,52.6,26.85,North,0,3.5,3.5,82,0.00,CLR,,0.00,WeatherDisplay:10.37,2013-05-20 05:20:00,
2013-05-20 00:25:00,57.6,52.8,26.86,SW,225,3.5,3.5,84,0.00,CLR,,0.00,WeatherDisplay:10.37,2013-05-20 05:25:00,
2013-05-20 00:31:00,57.6,52.8,26.86,SW,225,2.3,2.3,84,0.00,CLR,,0.00,WeatherDisplay:10.37,2013-05-20 05:31:00,
2013-05-20 00:36:00,57.6,52.8,26.85,North,10,2.3,2.3,84,0.00,CLR,,0.00,WeatherDisplay:10.37,2013-05-20 05:36:00,
2013-05-20 00:41:00,57.4,52.6,26.86,North,0,2.3,2.3,84,0.00,CLR,,0.00,WeatherDisplay:10.37,2013-05-20 05:41:00,
2013-05-20 00:46:00,57.4,52.6,26.85,North,0,2.3,2.3,84,0.00,CLR,,0.00,WeatherDisplay:10.37,2013-05-20 05:46:00,
2013-05-20 00:51:00,57.4,52.6,26.86,North,0,2.3,2.3,84,0.00,CLR,,0.00,WeatherDisplay:10.37,2013-05-20 05:51:00,
2013-05-20 00:56:00,57.4,52.6,26.86,North,0,2.3,2.3,84,0.00,CLR,,0.00,WeatherDisplay:10.37,2013-05-20 05:56:00,
2013-05-20 01:01:00,57.4,52.6,26.86,North,0,2.3,2.3,84,0.00,CLR,,0.00,WeatherDisplay:10.37,2013-05-20 06:01:00,
2013-05-20 01:07:00,57.4,52.6,26.86,North,0,2.3,2.3,84,0.00,CLR,,0.00,WeatherDisplay:10.37,2013-05-20 06:07:00,
2013-05-20 01:12:00,57.4,52.6,26.86,North,0,2.3,2.3,84,0.00,CLR,,0.00,WeatherDisplay:10.37,2013-05-20 06:12:00,
2013-05-20 01:17:00,57.4,52.6,26.86,NW,315,3.5,3.5,84,0.00,CLR,,0.00,WeatherDisplay:10.37,2013-05-20 06:17:00,
2013-05-20 01:22:00,57.2,52.4,26.87,SE,135,3.5,3.5,84,0.00,CLR,,0.00,WeatherDisplay:10.37,2013-05-20 06:22:00,
2013-05-20 01:28:00,57.2,52.4,26.86,SE,135,3.5,3.5,84,0.00,CLR,,0.00,WeatherDisplay:10.37,2013-05-20 06:28:00,
2013-05-20 01:33:00,57.2,52.4,26.87,North,0,3.5,3.5,84,0.00,CLR,,0.00,WeatherDisplay:10.37,2013-05-20 06:33:00,
2013-05-20 01:38:00,57.2,52.4,26.87,North,0,3.5,3.5,84,0.00,CLR,,0.00,WeatherDisplay:10.37,2013-05-20 06:38:00,
2013-05-20 01:43:00,57.2,52.4,26.87,North,0,3.5,3.5,84,0.00,CLR,,0.00,WeatherDisplay:10.37,2013-05-20 06:43:00,
2013-05-20 01:48:00,57.2,52.7,26.87,West,270,4.6,4.6,85,0.00,CLR,,0.00,WeatherDisplay:10.37,2013-05-20 06:48:00,
2013-05-20 01:53:00,57.2,52.7,26.87,NW,315,3.5,3.5,85,0.00,CLR,,0.00,WeatherDisplay:10.37,2013-05-20 06:53:00,
2013-05-20 01:58:00,57.2,52.7,26.87,WNW,292,4.6,4.6,85,0.00,CLR,,0.00,WeatherDisplay:10.37,2013-05-20 06:58:00,
2013-05-20 02:04:00,57.4,52.9,26.87,NW,315,2.3,2.3,85,0.00,CLR,,0.00,WeatherDisplay:10.37,2013-05-20 07:04:00,
2013-05-20 02:09:00,57.2,52.7,26.87,NE,45,3.5,3.5,85,0.00,CLR,,0.00,WeatherDisplay:10.37,2013-05-20 07:09:00,
2013-05-20 02:14:00,57.2,52.7,26.86,NE,45,3.5,3.5,85,0.00,CLR,,0.00,WeatherDisplay:10.37,2013-05-20 07:14:00,
2013-05-20 02:19:00,57.2,53.0,26.86,NW,315,3.5,3.5,86,0.00,CLR,,0.00,WeatherDisplay:10.37,2013-05-20 07:19:00,
2013-05-20 02:24:00,57.0,53.2,26.86,North,0,3.5,3.5,87,0.00,CLR,,0.00,WeatherDisplay:10.37,2013-05-20 07:24:00,
2013-05-20 02:30:00,57.0,53.2,26.86,NW,315,4.6,4.6,87,0.00,CLR,,0.00,WeatherDisplay:10.37,2013-05-20 07:30:00,
2013-05-20 02:35:00,56.8,53.0,26.85,NW,315,4.6,4.6,87,0.00,CLR,,0.00,WeatherDisplay:10.37,2013-05-20 07:35:00,
2013-05-20 02:40:00,56.8,53.3,26.85,NW,315,3.5,3.5,88,0.00,CLR,,0.00,WeatherDisplay:10.37,2013-05-20 07:40:00,
2013-05-20 02:45:00,56.8,53.3,26.86,NW,315,3.5,3.5,88,0.00,CLR,,0.00,WeatherDisplay:10.37,2013-05-20 07:45:00,
2013-05-20 02:50:00,56.8,53.3,26.86,West,270,1.1,0.0,88,0.00,CLR,,0.00,WeatherDisplay:10.37,2013-05-20 07:50:00,
2013-05-20 02:56:00,56.8,53.3,26.85,West,270,1.1,0.0,88,0.00,CLR,,0.00,WeatherDisplay:10.37,2013-05-20 07:56:00,
2013-05-20 03:01:00,56.8,53.3,26.86,North,1,1.1,0.0,88,0.00,CLR,,0.00,WeatherDisplay:10.37,2013-05-20 08:01:00,
2013-05-20 03:06:00,56.8,53.3,26.86,North,0,1.1,0.0,88,0.00,CLR,,0.00,WeatherDisplay:10.37,2013-05-20 08:06:00,
2013-05-20 03:11:00,56.8,53.3,26.86,North,0,1.1,0.0,88,0.00,CLR,,0.00,WeatherDisplay:10.37,2013-05-20 08:11:00,
2013-05-20 03:16:00,56.8,53.3,26.86,North,0,1.1,0.0,88,0.00,CLR,,0.00,WeatherDisplay:10.37,2013-05-20 08:16:00,
2013-05-20 03:22:00,56.8,53.3,26.86,North,0,1.1,0.0,88,0.00,CLR,,0.00,WeatherDisplay:10.37,2013-05-20 08:22:00,
2013-05-20 03:27:00,56.8,53.3,26.86,North,0,1.1,0.0,88,0.00,CLR,,0.00,WeatherDisplay:10.37,2013-05-20 08:27:00,
2013-05-20 03:32:00,56.8,53.3,26.85,North,0,1.1,0.0,88,0.00,CLR,,0.00,WeatherDisplay:10.37,2013-05-20 08:32:00,
2013-05-20 03:37:00,56.8,53.3,26.85,North,0,1.1,0.0,88,0.00,CLR,,0.00,WeatherDisplay:10.37,2013-05-20 08:37:00,
2013-05-20 03:42:00,56.8,53.3,26.85,North,0,1.1,0.0,88,0.00,CLR,,0.00,WeatherDisplay:10.37,2013-05-20 08:42:00,
2013-05-20 03:47:00,56.8,53.3,26.86,North,0,1.1,0.0,88,0.00,CLR,,0.00,WeatherDisplay:10.37,2013-05-20 08:47:00,
2013-05-20 03:52:00,56.8,53.3,26.85,North,0,1.1,0.0,88,0.00,CLR,,0.00,WeatherDisplay:10.37,2013-05-20 08:52:00,
2013-05-20 03:57:00,56.8,53.3,26.86,North,0,1.1,0.0,88,0.00,CLR,,0.00,WeatherDisplay:10.37,2013-05-20 08:57:00,
2013-05-20 04:02:00,56.8,53.3,26.86,North,0,1.1,0.0,88,0.00,CLR,,0.00,WeatherDisplay:10.37,2013-05-20 09:02:00,
2013-05-20 04:08:00,56.8,53.3,26.86,North,0,1.1,0.0,88,0.00,CLR,,0.00,WeatherDisplay:10.37,2013-05-20 09:08:00,
2013-05-20 04:13:00,56.8,53.3,26.85,North,0,1.1,0.0,88,0.00,CLR,,0.00,WeatherDisplay:10.37,2013-05-20 09:13:00,
2013-05-20 04:18:00,56.8,53.3,26.86,North,0,1.1,0.0,88,0.00,CLR,,0.00,WeatherDisplay:10.37,2013-05-20 09:18:00,
2013-05-20 04:23:00,56.8,53.3,26.86,North,0,1.1,0.0,88,0.00,CLR,,0.00,WeatherDisplay:10.37,2013-05-20 09:23:00,
2013-05-20 04:28:00,56.1,53.2,26.86,NW,315,2.3,2.3,90,0.00,CLR,,0.00,WeatherDisplay:10.37,2013-05-20 09:28:00,
2013-05-20 04:33:00,56.1,53.2,26.86,NW,315,2.3,2.3,90,0.00,CLR,,0.00,WeatherDisplay:10.37,2013-05-20 09:33:00,
2013-05-20 04:38:00,56.1,53.2,26.86,NNE,16,2.3,2.3,90,0.00,CLR,,0.00,WeatherDisplay:10.37,2013-05-20 09:38:00,
2013-05-20 04:44:00,56.3,53.4,26.86,NW,315,3.5,0.0,90,0.00,CLR,,0.00,WeatherDisplay:10.37,2013-05-20 09:44:00,
2013-05-20 04:49:00,56.3,53.4,26.87,WSW,248,3.5,3.5,90,0.00,CLR,,0.00,WeatherDisplay:10.37,2013-05-20 09:49:00,
2013-05-20 04:54:00,56.3,53.4,26.86,NW,315,1.1,0.0,90,0.00,CLR,,0.00,WeatherDisplay:10.37,2013-05-20 09:54:00,
2013-05-20 04:59:00,56.3,53.4,26.87,SW,225,3.5,3.5,90,0.00,CLR,,0.00,WeatherDisplay:10.37,2013-05-20 09:59:00,
2013-05-20 05:04:00,56.3,53.4,26.87,NE,45,3.5,3.5,90,0.00,CLR,,0.00,WeatherDisplay:10.37,2013-05-20 10:04:00,
2013-05-20 05:09:00,56.1,53.5,26.86,NW,315,3.5,3.5,91,0.00,CLR,,0.00,WeatherDisplay:10.37,2013-05-20 10:09:00,
2013-05-20 05:15:00,56.1,53.5,26.86,NNW,338,2.3,0.0,91,0.00,CLR,,0.00,WeatherDisplay:10.37,2013-05-20 10:15:00,
2013-05-20 05:20:00,56.1,53.5,26.86,NNW,338,2.3,0.0,91,0.00,CLR,,0.00,WeatherDisplay:10.37,2013-05-20 10:20:00,
2013-05-20 05:25:00,56.1,53.5,26.87,North,1,2.3,0.0,91,0.00,CLR,,0.00,WeatherDisplay:10.37,2013-05-20 10:25:00,
2013-05-20 05:30:00,56.1,53.5,26.87,North,0,2.3,0.0,91,0.00,CLR,,0.00,WeatherDisplay:10.37,2013-05-20 10:30:00,
2013-05-20 05:36:00,56.1,53.5,26.86,North,0,2.3,0.0,91,0.00,CLR,,0.00,WeatherDisplay:10.37,2013-05-20 10:36:00,
2013-05-20 05:41:00,56.1,53.5,26.87,North,0,2.3,0.0,91,0.00,CLR,,0.00,WeatherDisplay:10.37,2013-05-20 10:41:00,
2013-05-20 05:46:00,56.1,53.5,26.87,North,0,2.3,0.0,91,0.00,CLR,,0.00,WeatherDisplay:10.37,2013-05-20 10:46:00,
2013-05-20 05:52:00,55.4,54.0,26.87,West,270,2.3,2.3,95,0.00,CLR,,0.00,WeatherDisplay:10.37,2013-05-20 10:52:00,
2013-05-20 05:57:00,55.4,54.0,26.87,West,270,3.5,3.5,95,0.00,CLR,,0.00,WeatherDisplay:10.37,2013-05-20 10:57:00,
2013-05-20 06:02:00,55.6,54.2,26.87,NW,315,3.5,3.5,95,0.00,CLR,,0.00,WeatherDisplay:10.37,2013-05-20 11:02:00,
2013-05-20 06:07:00,55.8,54.3,26.88,NNW,338,2.3,2.3,95,0.00,CLR,,0.00,WeatherDisplay:10.37,2013-05-20 11:07:00,
2013-05-20 06:12:00,55.8,54.1,26.88,North,0,3.5,3.5,94,0.00,CLR,,0.00,WeatherDisplay:10.37,2013-05-20 11:12:00,
2013-05-20 06:17:00,55.8,54.1,26.88,North,0,3.5,3.5,94,0.00,CLR,,0.00,WeatherDisplay:10.37,2013-05-20 11:17:00,
2013-05-20 06:23:00,55.6,53.6,26.88,SW,225,3.5,3.5,93,0.00,CLR,,0.00,WeatherDisplay:10.37,2013-05-20 11:23:00,
2013-05-20 06:28:00,55.6,53.6,26.88,SW,225,2.3,2.3,93,0.00,CLR,,0.00,WeatherDisplay:10.37,2013-05-20 11:28:00,
2013-05-20 06:33:00,55.6,53.6,26.88,North,10,2.3,2.3,93,0.00,CLR,,0.00,WeatherDisplay:10.37,2013-05-20 11:33:00,
2013-05-20 06:38:00,55.6,53.6,26.88,North,0,2.3,2.3,93,0.00,CLR,,0.00,WeatherDisplay:10.37,2013-05-20 11:38:00,
2013-05-20 06:43:00,55.6,53.0,26.89,North,0,1.1,0.0,91,0.00,CLR,,0.00,WeatherDisplay:10.37,2013-05-20 11:43:00,
2013-05-20 06:48:00,55.6,53.0,26.88,North,0,1.1,0.0,91,0.00,CLR,,0.00,WeatherDisplay:10.37,2013-05-20 11:48:00,
2013-05-20 06:54:00,55.6,52.7,26.88,NW,315,3.5,3.5,90,0.00,CLR,,0.00,WeatherDisplay:10.37,2013-05-20 11:54:00,
2013-05-20 06:59:00,55.6,52.7,26.88,NW,315,3.5,3.5,90,0.00,CLR,,0.00,WeatherDisplay:10.37,2013-05-20 11:59:00,
2013-05-20 07:04:00,55.6,52.7,26.88,NW,315,3.5,3.5,90,0.00,CLR,,0.00,WeatherDisplay:10.37,2013-05-20 12:04:00,
2013-05-20 07:09:00,55.6,52.7,26.88,NNE,14,3.5,3.5,90,0.00,CLR,,0.00,WeatherDisplay:10.37,2013-05-20 12:09:00,
2013-05-20 07:15:00,56.1,52.3,26.88,NW,315,3.5,3.5,87,0.00,CLR,,0.00,WeatherDisplay:10.37,2013-05-20 12:15:00,
2013-05-20 07:20:00,56.1,52.3,26.88,NW,315,3.5,3.5,87,0.00,CLR,,0.00,WeatherDisplay:10.37,2013-05-20 12:20:00,
2013-05-20 07:25:00,56.5,52.0,26.88,NW,315,5.8,5.8,85,0.00,CLR,,0.00,WeatherDisplay:10.37,2013-05-20 12:25:00,
2013-05-20 07:30:00,56.5,52.0,26.88,WNW,292,4.6,4.6,85,0.00,CLR,,0.00,WeatherDisplay:10.37,2013-05-20 12:30:00,
2013-05-20 07:35:00,56.3,51.8,26.88,West,270,5.8,5.8,85,0.00,CLR,,0.00,WeatherDisplay:10.37,2013-05-20 12:35:00,
2013-05-20 07:40:00,56.3,51.8,26.88,West,270,3.5,3.5,85,0.00,CLR,,0.00,WeatherDisplay:10.37,2013-05-20 12:40:00,
2013-05-20 07:45:00,56.3,51.8,26.88,NW,315,4.6,4.6,85,0.00,CLR,,0.00,WeatherDisplay:10.37,2013-05-20 12:45:00,
2013-05-20 07:51:00,56.5,52.3,26.88,West,270,3.5,3.5,86,0.00,CLR,,0.00,WeatherDisplay:10.37,2013-05-20 12:51:00,
2013-05-20 07:56:00,57.0,52.6,26.88,NW,315,8.1,8.1,85,0.00,CLR,,0.00,WeatherDisplay:10.37,2013-05-20 12:56:00,
2013-05-20 08:01:00,57.2,52.4,26.88,NW,315,2.3,2.3,84,0.00,CLR,,0.00,WeatherDisplay:10.37,2013-05-20 13:01:00,
2013-05-20 08:07:00,57.6,52.8,26.88,West,270,2.3,2.3,84,0.00,CLR,,0.00,WeatherDisplay:10.37,2013-05-20 13:07:00,
2013-05-20 08:12:00,57.6,52.4,26.88,WSW,248,3.5,3.5,83,0.00,CLR,,0.00,WeatherDisplay:10.37,2013-05-20 13:12:00,
2013-05-20 08:17:00,57.6,52.4,26.88,WSW,248,3.5,3.5,83,0.00,CLR,,0.00,WeatherDisplay:10.37,2013-05-20 13:17:00,
2013-05-20 08:22:00,58.1,52.0,26.88,NE,45,5.8,5.8,80,0.00,CLR,,0.00,WeatherDisplay:10.37,2013-05-20 13:22:00,
2013-05-20 08:27:00,59.4,52.1,26.88,NW,315,3.5,3.5,77,0.00,CLR,,0.00,WeatherDisplay:10.37,2013-05-20 13:27:00,
2013-05-20 08:32:00,61.0,52.3,26.88,NW,315,8.1,8.1,73,0.00,CLR,,0.00,WeatherDisplay:10.37,2013-05-20 13:32:00,
2013-05-20 08:38:00,61.3,52.2,26.88,NW,315,5.8,5.8,72,0.00,CLR,,0.00,WeatherDisplay:10.37,2013-05-20 13:38:00,
2013-05-20 08:43:00,62.8,52.5,26.88,South,180,5.8,5.8,69,0.00,CLR,,0.00,WeatherDisplay:10.37,2013-05-20 13:43:00,
2013-05-20 08:48:00,63.3,52.2,26.88,West,270,3.5,3.5,67,0.00,CLR,,0.00,WeatherDisplay:10.37,2013-05-20 13:48:00,
2013-05-20 08:53:00,63.7,51.7,26.88,NE,45,4.6,4.6,65,0.00,CLR,,0.00,WeatherDisplay:10.37,2013-05-20 13:53:00,
2013-05-20 08:59:00,63.9,51.4,26.88,NW,315,6.9,6.9,64,0.00,CLR,,0.00,WeatherDisplay:10.37,2013-05-20 13:59:00,
2013-05-20 09:04:00,63.9,51.4,26.88,NW,315,3.5,3.5,64,0.00,CLR,,0.00,WeatherDisplay:10.37,2013-05-20 14:04:00,
2013-05-20 09:09:00,64.9,52.9,26.88,NW,315,6.0,6.0,65,0.00,CLR,,0.00,WeatherDisplay:10.37,2013-05-20 14:09:00,
2013-05-20 09:15:00,64.6,51.3,26.88,NW,315,6.9,6.9,62,0.00,CLR,,0.00,WeatherDisplay:10.37,2013-05-20 14:15:00,
2013-05-20 09:20:00,63.9,50.6,26.88,SE,135,4.6,4.6,62,0.00,CLR,,0.00,WeatherDisplay:10.37,2013-05-20 14:20:00,
2013-05-20 09:25:00,64.2,50.9,26.88,NW,315,10.4,10.4,62,0.00,CLR,,0.00,WeatherDisplay:10.37,2013-05-20 14:25:00,
2013-05-20 09:30:00,64.0,50.3,26.88,North,0,10.4,10.4,61,0.00,CLR,,0.00,WeatherDisplay:10.37,2013-05-20 14:30:00,
2013-05-20 09:35:00,64.0,50.3,26.88,NW,315,15.0,15.0,61,0.00,CLR,,0.00,WeatherDisplay:10.37,2013-05-20 14:35:00,
2013-05-20 09:40:00,64.2,50.9,26.88,WNW,292,5.8,5.8,62,0.00,CLR,,0.00,WeatherDisplay:10.37,2013-05-20 14:40:00,
2013-05-20 09:45:00,63.5,49.8,26.88,North,0,8.1,8.1,61,0.00,CLR,,0.00,WeatherDisplay:10.37,2013-05-20 14:45:00,
2013-05-20 09:50:00,63.7,50.0,26.88,NW,315,12.7,12.7,61,0.00,CLR,,0.00,WeatherDisplay:10.37,2013-05-20 14:50:00,
2013-05-20 09:55:00,63.5,49.8,26.88,West,270,4.6,4.6,61,0.00,CLR,,0.00,WeatherDisplay:10.37,2013-05-20 14:55:00,
2013-05-20 10:00:00,63.5,49.8,26.88,NW,315,9.2,9.2,61,0.00,CLR,,0.00,WeatherDisplay:10.37,2013-05-20 15:00:00,
2013-05-20 10:06:00,64.0,50.3,26.88,SE,135,8.1,8.1,61,0.00,CLR,,0.00,WeatherDisplay:10.37,2013-05-20 15:06:00,
2013-05-20 10:11:00,64.2,49.1,26.88,NW,315,17.3,17.3,58,0.00,CLR,,0.00,WeatherDisplay:10.37,2013-05-20 15:11:00,
2013-05-20 10:16:00,63.5,47.5,26.88,NW,315,12.7,12.7,56,0.00,CLR,,0.00,WeatherDisplay:10.37,2013-05-20 15:16:00,
2013-05-20 10:21:00,63.5,48.0,26.88,NW,315,9.2,9.2,57,0.00,CLR,,0.00,WeatherDisplay:10.37,2013-05-20 15:21:00,
2013-05-20 10:26:00,63.3,47.3,26.88,NW,315,12.7,12.7,56,0.00,CLR,,0.00,WeatherDisplay:10.37,2013-05-20 15:26:00,
2013-05-20 10:31:00,63.3,48.3,26.88,NW,315,12.7,12.7,58,0.00,CLR,,0.00,WeatherDisplay:10.37,2013-05-20 15:31:00,
2013-05-20 10:36:00,63.1,48.1,26.88,West,270,11.5,11.5,58,0.00,CLR,,0.00,WeatherDisplay:10.37,2013-05-20 15:36:00,
2013-05-20 10:42:00,63.1,47.7,26.88,West,270,8.1,8.1,57,0.00,CLR,,0.00,WeatherDisplay:10.37,2013-05-20 15:42:00,
2013-05-20 10:47:00,63.0,48.4,26.88,SW,225,9.2,9.2,59,0.00,CLR,,0.00,WeatherDisplay:10.37,2013-05-20 15:47:00,
2013-05-20 10:52:00,63.0,47.9,26.89,NW,315,6.9,6.9,58,0.00,CLR,,0.00,WeatherDisplay:10.37,2013-05-20 15:52:00,
2013-05-20 10:57:00,62.6,47.1,26.89,NW,315,10.4,10.4,57,0.00,CLR,,0.00,WeatherDisplay:10.37,2013-05-20 15:57:00,
2013-05-20 11:02:00,62.6,47.1,26.88,NW,315,10.4,10.4,57,0.00,CLR,,0.00,WeatherDisplay:10.37,2013-05-20 16:02:00,
2013-05-20 11:07:00,63.3,47.8,26.89,NW,315,10.4,10.4,57,0.00,CLR,,0.00,WeatherDisplay:10.37,2013-05-20 16:07:00,
2013-05-20 11:13:00,63.1,46.2,26.89,NW,315,15.0,15.0,54,0.00,CLR,,0.00,WeatherDisplay:10.37,2013-05-20 16:13:00,
2013-05-20 11:18:00,62.8,45.4,26.89,NW,315,10.4,10.4,53,0.00,CLR,,0.00,WeatherDisplay:10.37,2013-05-20 16:18:00,
2013-05-20 11:23:00,62.6,45.2,26.90,NW,315,12.7,12.7,53,0.00,CLR,,0.00,WeatherDisplay:10.37,2013-05-20 16:23:00,
2013-05-20 11:28:00,62.6,45.2,26.89,North,0,10.4,10.4,53,0.00,CLR,,0.00,WeatherDisplay:10.37,2013-05-20 16:28:00,
2013-05-20 11:34:00,63.0,45.6,26.90,North,0,9.2,9.2,53,0.00,CLR,,0.00,WeatherDisplay:10.37,2013-05-20 16:34:00,
2013-05-20 11:39:00,63.1,46.2,26.90,NNW,338,5.8,5.8,54,0.00,CLR,,0.00,WeatherDisplay:10.37,2013-05-20 16:39:00,
2013-05-20 11:44:00,63.0,45.6,26.90,North,0,10.4,10.4,53,0.00,CLR,,0.00,WeatherDisplay:10.37,2013-05-20 16:44:00,
2013-05-20 11:49:00,62.8,45.4,26.90,NW,315,3.5,3.5,53,0.00,CLR,,0.00,WeatherDisplay:10.37,2013-05-20 16:49:00,
2013-05-20 11:54:00,63.0,46.0,26.90,NW,315,5.8,5.8,54,0.00,CLR,,0.00,WeatherDisplay:10.37,2013-05-20 16:54:00,
2013-05-20 11:59:00,63.1,46.2,26.90,NW,315,5.8,5.8,54,0.00,CLR,,0.00,WeatherDisplay:10.37,2013-05-20 16:59:00,
2013-05-20 12:04:00,64.4,47.9,26.90,SW,225,8.1,8.1,55,0.00,CLR,,0.00,WeatherDisplay:10.37,2013-05-20 17:04:00,
2013-05-20 12:09:00,64.4,47.4,26.90,West,270,8.1,8.1,54,0.00,CLR,,0.00,WeatherDisplay:10.37,2013-05-20 17:09:00,
2013-05-20 12:14:00,64.6,47.6,26.89,NW,315,5.8,5.8,54,0.00,CLR,,0.00,WeatherDisplay:10.37,2013-05-20 17:14:00,
2013-05-20 12:19:00,64.2,46.7,26.89,North,0,13.8,13.8,53,0.00,CLR,,0.00,WeatherDisplay:10.37,2013-05-20 17:19:00,
2013-05-20 12:24:00,64.4,47.9,26.89,South,180,6.9,6.9,55,0.00,CLR,,0.00,WeatherDisplay:10.37,2013-05-20 17:24:00,
2013-05-20 12:29:00,65.8,48.2,26.89,SW,225,5.8,5.8,53,0.00,CLR,,0.00,WeatherDisplay:10.37,2013-05-20 17:29:00,
2013-05-20 12:35:00,66.7,47.5,26.89,West,270,8.1,8.1,50,0.00,CLR,,0.00,WeatherDisplay:10.37,2013-05-20 17:35:00,
2013-05-20 12:40:00,66.6,46.3,26.89,NW,315,3.5,3.5,48,0.00,CLR,,0.00,WeatherDisplay:10.37,2013-05-20 17:40:00,
2013-05-20 12:45:00,66.7,46.4,26.88,WSW,248,12.7,12.7,48,0.00,CLR,,0.00,WeatherDisplay:10.37,2013-05-20 17:45:00,
2013-05-20 12:50:00,66.4,46.1,26.88,SSW,202,5.8,5.8,48,0.00,CLR,,0.00,WeatherDisplay:10.37,2013-05-20 17:50:00,
2013-05-20 12:55:00,65.8,46.7,26.88,NW,315,8.3,8.3,50,0.00,CLR,,0.00,WeatherDisplay:10.37,2013-05-20 17:55:00,
2013-05-20 13:00:00,65.5,46.9,26.88,NW,315,10.4,10.4,51,0.00,CLR,,0.00,WeatherDisplay:10.37,2013-05-20 18:00:00,
2013-05-20 13:06:00,65.5,46.9,26.88,NW,315,10.4,10.4,51,0.00,CLR,,0.00,WeatherDisplay:10.37,2013-05-20 18:06:00,
2013-05-20 13:11:00,66.4,46.1,26.88,NW,315,12.7,12.7,48,0.00,CLR,,0.00,WeatherDisplay:10.37,2013-05-20 18:11:00,
2013-05-20 13:16:00,66.7,47.0,26.88,North,0,8.1,8.1,49,0.00,CLR,,0.00,WeatherDisplay:10.37,2013-05-20 18:16:00,
2013-05-20 13:21:00,66.4,46.1,26.88,South,180,6.9,6.9,48,0.00,CLR,,0.00,WeatherDisplay:10.37,2013-05-20 18:21:00,
2013-05-20 13:26:00,65.5,46.9,26.88,NW,315,9.2,9.2,51,0.00,CLR,,0.00,WeatherDisplay:10.37,2013-05-20 18:26:00,
2013-05-20 13:31:00,65.1,47.1,26.89,NW,315,12.7,12.7,52,0.00,CLR,,0.00,WeatherDisplay:10.37,2013-05-20 18:31:00,
2013-05-20 13:37:00,64.8,46.7,26.88,NW,315,12.7,12.7,52,0.00,CLR,,0.00,WeatherDisplay:10.37,2013-05-20 18:37:00,
2013-05-20 13:42:00,64.2,45.7,26.88,NW,315,11.5,11.5,51,0.00,CLR,,0.00,WeatherDisplay:10.37,2013-05-20 18:42:00,
2013-05-20 13:47:00,64.9,46.4,26.88,NW,315,11.5,11.5,51,0.00,CLR,,0.00,WeatherDisplay:10.37,2013-05-20 18:47:00,
2013-05-20 13:52:00,65.8,47.2,26.88,NW,315,5.8,5.8,51,0.00,CLR,,0.00,WeatherDisplay:10.37,2013-05-20 18:52:00,
2013-05-20 13:58:00,66.7,48.5,26.88,NW,315,4.6,4.6,52,0.00,CLR,,0.00,WeatherDisplay:10.37,2013-05-20 18:58:00,
2013-05-20 14:03:00,67.5,47.6,26.88,East,90,15.0,15.0,49,0.00,CLR,,0.00,WeatherDisplay:10.37,2013-05-20 19:03:00,
2013-05-20 14:08:00,66.7,48.0,26.88,NW,315,10.4,10.4,51,0.00,CLR,,0.00,WeatherDisplay:10.37,2013-05-20 19:08:00,
2013-05-20 14:13:00,65.1,47.1,26.88,NW,315,10.4,10.4,52,0.00,CLR,,0.00,WeatherDisplay:10.37,2013-05-20 19:13:00,
2013-05-20 14:18:00,64.0,46.1,26.88,West,270,5.8,5.8,52,0.00,CLR,,0.00,WeatherDisplay:10.37,2013-05-20 19:18:00,
2013-05-20 14:23:00,63.9,46.9,26.89,NW,315,12.7,12.7,54,0.00,CLR,,0.00,WeatherDisplay:10.37,2013-05-20 19:23:00,
2013-05-20 14:28:00,62.8,46.8,26.90,NW,315,13.8,13.8,56,0.00,CLR,,0.00,WeatherDisplay:10.37,2013-05-20 19:28:00,
2013-05-20 14:33:00,62.2,47.7,26.90,West,270,8.1,8.1,59,0.00,CLR,,0.00,WeatherDisplay:10.37,2013-05-20 19:33:00,
2013-05-20 14:39:00,62.4,47.4,26.89,WNW,292,12.7,12.7,58,0.00,CLR,,0.00,WeatherDisplay:10.37,2013-05-20 19:39:00,
2013-05-20 14:44:00,62.4,48.3,26.90,NW,315,11.5,11.5,60,0.00,CLR,,0.00,WeatherDisplay:10.37,2013-05-20 19:44:00,
2013-05-20 14:49:00,63.0,48.4,26.90,East,90,9.2,13.0,59,0.00,CLR,,0.00,WeatherDisplay:10.37,2013-05-20 19:49:00,
2013-05-20 14:54:00,61.5,47.5,26.90,NW,315,15.0,15.0,60,0.00,CLR,,0.00,WeatherDisplay:10.37,2013-05-20 19:54:00,
2013-05-20 15:00:00,61.5,47.5,26.89,NW,315,9.2,9.2,60,0.00,CLR,,0.00,WeatherDisplay:10.37,2013-05-20 20:00:00,
2013-05-20 15:05:00,61.5,47.5,26.89,NW,315,9.2,9.2,60,0.00,CLR,,0.00,WeatherDisplay:10.37,2013-05-20 20:05:00,
2013-05-20 15:10:00,62.6,46.7,26.89,NW,315,10.4,10.4,56,0.00,CLR,,0.00,WeatherDisplay:10.37,2013-05-20 20:10:00,
2013-05-20 15:15:00,63.0,46.5,26.90,NW,315,15.2,15.2,55,0.00,CLR,,0.00,WeatherDisplay:10.37,2013-05-20 20:15:00,
2013-05-20 15:20:00,62.6,46.7,26.89,NW,315,13.8,13.8,56,0.00,CLR,,0.00,WeatherDisplay:10.37,2013-05-20 20:20:00,
2013-05-20 15:25:00,63.1,47.2,26.89,WNW,292,9.2,9.2,56,0.00,CLR,,0.00,WeatherDisplay:10.37,2013-05-20 20:25:00,
2013-05-20 15:30:00,63.1,45.7,26.90,NW,315,18.4,18.4,53,0.00,CLR,,0.00,WeatherDisplay:10.37,2013-05-20 20:30:00,
2013-05-20 15:36:00,62.2,45.9,26.90,North,0,15.0,15.0,55,0.00,CLR,,0.00,WeatherDisplay:10.37,2013-05-20 20:36:00,
2013-05-20 15:41:00,62.1,46.2,26.90,NW,315,10.4,10.4,56,0.00,CLR,,0.00,WeatherDisplay:10.37,2013-05-20 20:41:00,
2013-05-20 15:46:00,61.9,46.5,26.90,NW,315,13.8,13.8,57,0.00,CLR,,0.00,WeatherDisplay:10.37,2013-05-20 20:46:00,
2013-05-20 15:51:00,62.1,46.2,26.90,NW,315,8.1,8.1,56,0.00,CLR,,0.00,WeatherDisplay:10.37,2013-05-20 20:51:00,
2013-05-20 15:56:00,61.9,45.0,26.90,North,0,15.0,15.0,54,0.00,CLR,,0.00,WeatherDisplay:10.37,2013-05-20 20:56:00,
2013-05-20 16:02:00,62.1,45.7,26.90,NW,315,17.3,17.3,55,0.00,CLR,,0.00,WeatherDisplay:10.37,2013-05-20 21:02:00,
2013-05-20 16:07:00,61.5,45.7,26.90,NW,315,10.4,10.4,56,0.00,CLR,,0.00,WeatherDisplay:10.37,2013-05-20 21:07:00,
2013-05-20 16:12:00,60.8,45.0,26.90,North,0,11.5,11.5,56,0.00,CLR,,0.00,WeatherDisplay:10.37,2013-05-20 21:12:00,
2013-05-20 16:17:00,60.4,46.5,26.90,NW,315,8.1,8.1,60,0.00,CLR,,0.00,WeatherDisplay:10.37,2013-05-20 21:17:00,
2013-05-20 16:22:00,59.9,46.4,26.90,NW,315,13.8,13.8,61,0.00,CLR,,0.00,WeatherDisplay:10.37,2013-05-20 21:22:00,
2013-05-20 16:28:00,59.4,46.8,26.90,NW,315,9.2,9.2,63,0.00,CLR,,0.00,WeatherDisplay:10.37,2013-05-20 21:28:00,
2013-05-20 16:33:00,59.4,46.8,26.91,SE,135,8.1,8.1,63,0.00,CLR,,0.00,WeatherDisplay:10.37,2013-05-20 21:33:00,
2013-05-20 16:38:00,59.4,47.2,26.91,NW,315,15.0,15.0,64,0.00,CLR,,0.00,WeatherDisplay:10.37,2013-05-20 21:38:00,
2013-05-20 16:43:00,59.5,47.3,26.90,West,270,5.8,9.8,64,0.00,CLR,,0.00,WeatherDisplay:10.37,2013-05-20 21:43:00,
2013-05-20 16:48:00,59.9,47.7,26.90,NW,315,12.7,12.7,64,0.00,CLR,,0.00,WeatherDisplay:10.37,2013-05-20 21:48:00,
2013-05-20 16:53:00,59.9,47.7,26.90,NW,315,8.1,8.1,64,0.00,CLR,,0.00,WeatherDisplay:10.37,2013-05-20 21:53:00,
2013-05-20 16:59:00,60.1,47.4,26.90,NW,315,13.8,13.8,63,0.00,CLR,,0.00,WeatherDisplay:10.37,2013-05-20 21:59:00,
2013-05-20 17:04:00,60.1,47.4,26.90,NW,315,12.7,12.7,63,0.00,CLR,,0.00,WeatherDisplay:10.37,2013-05-20 22:04:00,
2013-05-20 17:09:00,60.3,47.6,26.90,West,270,12.7,12.7,63,0.00,CLR,,0.00,WeatherDisplay:10.37,2013-05-20 22:09:00,
2013-05-20 17:14:00,60.3,47.6,26.90,NW,315,12.7,12.7,63,0.00,CLR,,0.00,WeatherDisplay:10.37,2013-05-20 22:14:00,
2013-05-20 17:19:00,60.6,48.4,26.90,NW,315,12.7,12.7,64,0.00,CLR,,0.00,WeatherDisplay:10.37,2013-05-20 22:19:00,
2013-05-20 17:25:00,60.4,48.6,26.91,NW,315,11.5,11.5,65,0.00,CLR,,0.00,WeatherDisplay:10.37,2013-05-20 22:25:00,
2013-05-20 17:30:00,60.1,48.7,26.91,West,270,12.7,12.7,66,0.00,CLR,,0.00,WeatherDisplay:10.37,2013-05-20 22:30:00,
2013-05-20 17:35:00,59.2,49.8,26.91,NW,315,10.4,10.4,71,0.00,CLR,,0.00,WeatherDisplay:10.37,2013-05-20 22:35:00,
2013-05-20 17:40:00,58.5,50.2,26.91,NW,315,16.1,16.1,74,0.00,CLR,,0.00,WeatherDisplay:10.37,2013-05-20 22:40:00,
2013-05-20 17:45:00,57.7,49.5,26.91,NW,315,11.5,11.5,74,0.00,CLR,,0.00,WeatherDisplay:10.37,2013-05-20 22:45:00,
2013-05-20 17:51:00,57.4,49.5,26.91,WNW,292,8.1,8.1,75,0.00,CLR,,0.00,WeatherDisplay:10.37,2013-05-20 22:51:00,
2013-05-20 17:56:00,57.0,50.2,26.91,NW,315,6.9,6.9,78,0.00,CLR,,0.00,WeatherDisplay:10.37,2013-05-20 22:56:00,
2013-05-20 18:01:00,56.5,50.4,26.91,NW,315,12.7,12.7,80,0.00,CLR,,0.00,WeatherDisplay:10.37,2013-05-20 23:01:00,
2013-05-20 18:06:00,55.9,50.5,26.91,NW,315,8.1,8.1,82,0.00,CLR,,0.00,WeatherDisplay:10.37,2013-05-20 23:06:00,
2013-05-20 18:11:00,55.9,50.5,26.91,NW,315,11.5,11.5,82,0.00,CLR,,0.00,WeatherDisplay:10.37,2013-05-20 23:11:00,
2013-05-20 18:16:00,55.8,50.7,26.91,NW,315,5.8,5.8,83,0.00,CLR,,0.00,WeatherDisplay:10.37,2013-05-20 23:16:00,
2013-05-20 18:21:00,55.9,51.2,26.91,NW,315,9.2,9.2,84,0.00,CLR,,0.00,WeatherDisplay:10.37,2013-05-20 23:21:00,
2013-05-20 18:26:00,56.1,51.7,26.91,NW,315,4.6,4.6,85,0.00,CLR,,0.00,WeatherDisplay:10.37,2013-05-20 23:26:00,
2013-05-20 18:32:00,56.1,51.7,26.91,NW,315,10.4,10.4,85,0.00,CLR,,0.00,WeatherDisplay:10.37,2013-05-20 23:32:00,
2013-05-20 18:37:00,56.1,51.4,26.91,NW,315,9.2,9.2,84,0.00,CLR,,0.00,WeatherDisplay:10.37,2013-05-20 23:37:00,
2013-05-20 18:42:00,56.3,51.2,26.91,WNW,292,10.4,10.4,83,0.00,CLR,,0.00,WeatherDisplay:10.37,2013-05-20 23:42:00,
2013-05-20 18:47:00,56.5,51.1,26.91,NW,315,6.9,6.9,82,0.00,CLR,,0.00,WeatherDisplay:10.37,2013-05-20 23:47:00,
2013-05-20 18:52:00,56.8,51.1,26.91,NW,315,8.1,8.1,81,0.00,CLR,,0.00,WeatherDisplay:10.37,2013-05-20 23:52:00,
2013-05-20 18:57:00,57.4,50.6,26.91,NW,315,11.5,11.5,78,0.00,CLR,,0.00,WeatherDisplay:10.37,2013-05-20 23:57:00,
2013-05-20 19:03:00,57.6,50.4,26.91,NW,315,6.9,6.9,77,0.00,CLR,,0.00,WeatherDisplay:10.37,2013-05-21 00:03:00,
2013-05-20 19:08:00,58.1,50.2,26.91,NW,315,8.1,8.1,75,0.00,CLR,,0.00,WeatherDisplay:10.37,2013-05-21 00:08:00,
2013-05-20 19:13:00,58.5,50.6,26.91,NW,315,10.4,10.4,75,0.00,CLR,,0.00,WeatherDisplay:10.37,2013-05-21 00:13:00,
2013-05-20 19:18:00,58.5,50.2,26.91,West,270,12.7,12.7,74,0.00,CLR,,0.00,WeatherDisplay:10.37,2013-05-21 00:18:00,
2013-05-20 19:23:00,58.5,50.2,26.92,NW,315,10.4,10.4,74,0.00,CLR,,0.00,WeatherDisplay:10.37,2013-05-21 00:23:00,
2013-05-20 19:28:00,58.5,50.2,26.91,NW,315,9.2,9.2,74,0.00,CLR,,0.00,WeatherDisplay:10.37,2013-05-21 00:28:00,
2013-05-20 19:34:00,58.5,49.8,26.92,NW,315,8.1,8.1,73,0.00,CLR,,0.00,WeatherDisplay:10.37,2013-05-21 00:34:00,
2013-05-20 19:39:00,58.5,50.2,26.92,NW,315,6.9,6.9,74,0.00,CLR,,0.00,WeatherDisplay:10.37,2013-05-21 00:39:00,
2013-05-20 19:44:00,58.5,49.1,26.92,NW,315,19.6,19.6,71,0.00,CLR,,0.00,WeatherDisplay:10.37,2013-05-21 00:44:00,
2013-05-20 19:50:00,58.5,49.1,26.93,NW,315,10.4,10.4,71,0.00,CLR,,0.00,WeatherDisplay:10.37,2013-05-21 00:50:00,
2013-05-20 19:55:00,58.3,49.3,26.93,NW,315,6.9,6.9,72,0.00,CLR,,0.00,WeatherDisplay:10.37,2013-05-21 00:55:00,
2013-05-20 20:00:00,58.1,49.5,26.92,NW,315,8.1,8.1,73,0.00,CLR,,0.00,WeatherDisplay:10.37,2013-05-21 01:00:00,
2013-05-20 20:05:00,57.7,48.8,26.93,NW,315,12.7,12.7,72,0.00,CLR,,0.00,WeatherDisplay:10.37,2013-05-21 01:05:00,
2013-05-20 20:10:00,57.6,49.0,26.93,WNW,292,12.7,12.7,73,0.00,CLR,,0.00,WeatherDisplay:10.37,2013-05-21 01:10:00,
2013-05-20 20:16:00,57.4,49.2,26.93,WNW,292,8.1,8.1,74,0.00,CLR,,0.00,WeatherDisplay:10.37,2013-05-21 01:16:00,
2013-05-20 20:21:00,57.4,49.2,26.93,North,0,9.2,9.2,74,0.00,CLR,,0.00,WeatherDisplay:10.37,2013-05-21 01:21:00,
2013-05-20 20:26:00,57.2,49.0,26.93,NW,315,11.5,11.5,74,0.00,CLR,,0.00,WeatherDisplay:10.37,2013-05-21 01:26:00,
2013-05-20 20:32:00,57.2,49.0,26.94,NNE,14,8.1,8.1,74,0.00,CLR,,0.00,WeatherDisplay:10.37,2013-05-21 01:32:00,
2013-05-20 20:37:00,57.0,49.2,26.94,West,270,8.1,8.1,75,0.00,CLR,,0.00,WeatherDisplay:10.37,2013-05-21 01:37:00,
2013-05-20 20:42:00,57.0,49.2,26.94,NW,315,5.8,5.8,75,0.00,CLR,,0.00,WeatherDisplay:10.37,2013-05-21 01:42:00,
2013-05-20 20:47:00,56.8,48.6,26.94,NE,45,8.1,8.1,74,0.00,CLR,,0.00,WeatherDisplay:10.37,2013-05-21 01:47:00,
2013-05-20 20:52:00,56.8,49.0,26.94,West,270,8.1,8.1,75,0.00,CLR,,0.00,WeatherDisplay:10.37,2013-05-21 01:52:00,
2013-05-20 20:57:00,56.7,48.8,26.94,NW,315,13.0,13.0,75,0.00,CLR,,0.00,WeatherDisplay:10.37,2013-05-21 01:57:00,
2013-05-20 21:02:00,56.5,48.6,26.94,NW,315,10.4,10.4,75,0.00,CLR,,0.00,WeatherDisplay:10.37,2013-05-21 02:02:00,
2013-05-20 21:07:00,56.3,48.8,26.94,NW,315,10.4,10.4,76,0.00,CLR,,0.00,WeatherDisplay:10.37,2013-05-21 02:07:00,
2013-05-20 21:12:00,56.1,48.7,26.94,NW,315,8.1,8.1,76,0.00,CLR,,0.00,WeatherDisplay:10.37,2013-05-21 02:12:00,
2013-05-20 21:18:00,55.9,48.5,26.94,NW,315,5.8,5.8,76,0.00,CLR,,0.00,WeatherDisplay:10.37,2013-05-21 02:18:00,
2013-05-20 21:23:00,55.9,48.5,26.94,NNW,338,5.8,5.8,76,0.00,CLR,,0.00,WeatherDisplay:10.37,2013-05-21 02:23:00,
2013-05-20 21:28:00,55.9,48.5,26.94,WNW,292,5.8,5.8,76,0.00,CLR,,0.00,WeatherDisplay:10.37,2013-05-21 02:28:00,
2013-05-20 21:33:00,56.1,48.7,26.94,NW,315,6.9,6.9,76,0.00,CLR,,0.00,WeatherDisplay:10.37,2013-05-21 02:33:00,
2013-05-20 21:39:00,56.1,48.3,26.95,NW,315,6.9,6.9,75,0.00,CLR,,0.00,WeatherDisplay:10.37,2013-05-21 02:39:00,
2013-05-20 21:44:00,56.3,48.5,26.94,NW,315,6.9,6.9,75,0.00,CLR,,0.00,WeatherDisplay:10.37,2013-05-21 02:44:00,
2013-05-20 21:49:00,56.1,48.3,26.94,NNW,338,8.1,8.1,75,0.00,CLR,,0.00,WeatherDisplay:10.37,2013-05-21 02:49:00,
2013-05-20 21:55:00,55.9,48.5,26.95,NW,315,5.8,5.8,76,0.00,CLR,,0.00,WeatherDisplay:10.37,2013-05-21 02:55:00,
2013-05-20 22:00:00,55.9,48.5,26.95,NW,315,9.2,9.2,76,0.00,CLR,,0.00,WeatherDisplay:10.37,2013-05-21 03:00:00,
2013-05-20 22:05:00,55.8,48.0,26.95,NW,315,8.1,8.1,75,0.00,CLR,,0.00,WeatherDisplay:10.37,2013-05-21 03:05:00,
2013-05-20 22:11:00,55.8,48.0,26.94,NW,315,10.4,10.4,75,0.00,CLR,,0.00,WeatherDisplay:10.37,2013-05-21 03:11:00,
2013-05-20 22:16:00,55.6,47.8,26.95,West,270,8.1,8.1,75,0.00,CLR,,0.00,WeatherDisplay:10.37,2013-05-21 03:16:00,
2013-05-20 22:21:00,55.6,47.8,26.95,NW,315,5.8,5.8,75,0.00,CLR,,0.00,WeatherDisplay:10.37,2013-05-21 03:21:00,
2013-05-20 22:26:00,55.2,47.8,26.95,WNW,292,5.8,5.8,76,0.00,CLR,,0.00,WeatherDisplay:10.37,2013-05-21 03:26:00,
2013-05-20 22:31:00,55.0,48.0,26.95,NW,315,5.8,5.8,77,0.00,CLR,,0.00,WeatherDisplay:10.37,2013-05-21 03:31:00,
2013-05-20 22:36:00,54.9,47.8,26.95,NW,315,5.8,5.8,77,0.00,CLR,,0.00,WeatherDisplay:10.37,2013-05-21 03:36:00,
2013-05-20 22:42:00,54.9,47.8,26.95,NW,315,8.1,8.1,77,0.00,CLR,,0.00,WeatherDisplay:10.37,2013-05-21 03:42:00,
2013-05-20 22:47:00,54.9,47.8,26.96,NW,315,8.1,8.1,77,0.00,CLR,,0.00,WeatherDisplay:10.37,2013-05-21 03:47:00,
2013-05-20 22:52:00,54.9,47.8,26.96,NW,315,8.1,8.1,77,0.00,CLR,,0.00,WeatherDisplay:10.37,2013-05-21 03:52:00,
2013-05-20 22:57:00,54.9,47.8,26.96,NW,315,3.5,3.5,77,0.00,CLR,,0.00,WeatherDisplay:10.37,2013-05-21 03:57:00,
2013-05-20 23:01:00,54.7,47.6,26.96,NW,315,3.5,3.5,77,0.00,CLR,,0.00,WeatherDisplay:10.37,2013-05-21 04:01:00,
2013-05-20 23:07:00,54.7,47.6,26.96,NW,315,2.3,2.3,77,0.00,CLR,,0.00,WeatherDisplay:10.37,2013-05-21 04:07:00,
2013-05-20 23:12:00,54.3,47.6,26.96,NW,315,8.1,8.1,78,0.00,CLR,,0.00,WeatherDisplay:10.37,2013-05-21 04:12:00,
2013-05-20 23:17:00,54.3,47.6,26.96,NW,315,3.5,3.5,78,0.00,CLR,,0.00,WeatherDisplay:10.37,2013-05-21 04:17:00,
2013-05-20 23:22:00,54.1,47.4,26.97,NW,315,3.5,3.5,78,0.00,CLR,,0.00,WeatherDisplay:10.37,2013-05-21 04:22:00,
2013-05-20 23:27:00,54.0,47.6,26.96,NW,315,2.3,2.3,79,0.00,CLR,,0.00,WeatherDisplay:10.37,2013-05-21 04:27:00,
2013-05-20 23:33:00,53.8,47.8,26.96,NW,315,3.5,3.5,80,0.00,CLR,,0.00,WeatherDisplay:10.37,2013-05-21 04:33:00,
2013-05-20 23:38:00,53.6,47.6,26.96,North,0,5.8,5.8,80,0.00,CLR,,0.00,WeatherDisplay:10.37,2013-05-21 04:38:00,
2013-05-20 23:43:00,53.6,47.6,26.96,NW,315,2.3,2.3,80,0.00,CLR,,0.00,WeatherDisplay:10.37,2013-05-21 04:43:00,
2013-05-20 23:48:00,53.6,47.6,26.96,SW,225,3.5,3.5,80,0.00,CLR,,0.00,WeatherDisplay:10.37,2013-05-21 04:48:00,
2013-05-20 23:53:00,53.6,47.6,26.96,North,0,3.5,3.5,80,0.00,CLR,,0.00,WeatherDisplay:10.37,2013-05-21 04:53:00,
2013-05-20 23:58:00,53.6,47.6,26.96,North,0,3.5,3.5,80,0.00,CLR,,0.00,WeatherDisplay:10.37,2013-05-21 04:58:00,